weather.gov     
National Weather Service

Terminal Aerodrome Forecast
NWS Homepage
This page is being discontinued on March 12, 2014.
The same data is available at this site. Please update your bookmarks.
Thank you, and we apologize for the inconvenience.
Please send an email to SR-SRH.Webmaster@noaa.gov with any concerns.


Current Version
Previous Version:    01  02  03  04  05  06  07  08  09  10  11  12  13  14  15  16  17  18  19  20  21  22  23  24  25  26  27  28  29  30  
   31  32  33  34  35  36  37  38  39  40  41  42  43  
[Printable]
155
FTUS41 KBOX 280759 AAA
TAFBAF
TAF AMD
KBAF 280759Z 2808/2906 VRB03KT P6SM OVC008
     FM281000 04004KT 4SM -SHRA BR OVC012
     FM281500 21009KT P6SM BKN025
     FM282100 24009KT P6SM BKN050
     FM290000 28008KT P6SM BKN025
     FM290300 28007KT P6SM BKN015=


155
FTUS41 KBOX 280759 AAA
TAFBAF
TAF AMD
KBAF 280759Z 2808/2906 VRB03KT P6SM OVC008
     FM281000 04004KT 4SM -SHRA BR OVC012
     FM281500 21009KT P6SM BKN025
     FM282100 24009KT P6SM BKN050
     FM290000 28008KT P6SM BKN025
     FM290300 28007KT P6SM BKN015=




U.S. Dept. of Commerce
NOAA National Weather Service
1325 East West Highway
Silver Spring, MD 20910
E-mail: w-nws.webmaster@noaa.gov
Page last modified: May 16, 2007
NATIONAL WEATHER SERVICE: for Safety, for Work, for Fun - FOR LIFE